チェルヌイフ彗星

101P/Chernykh (2005)

English version
Home page
Updated on February 18, 2007

---------------------------------------------------------------------

・ プロフィール

・ 写真集

・ 軌道要素

Epoch 2005 Dec. 16.0 TT = JDT 2453720.5
T 2005 Dec. 25.32380 TT                                 MPC
q   2.3505242            (2000.0)            P               Q
n   0.07078621     Peri.  263.16552     +0.83149908     -0.55140421
a   5.7876681      Node   130.27340     +0.53823003     +0.76952835
e   0.5938737      Incl.    5.07920     +0.13754169     +0.32214829
P  13.92
>From 34 observations 1992 Jan. 27-2005 July 11, mean residual 0".68.

 101P/Chernykh  (component B; cf. IAUC 8637)
T 2005 Dec. 24.5263 TT                                  MPC
q   2.351392             (2000.0)            P               Q
n   0.0700012      Peri.  263.2661      +0.8313277      -0.5516536
a   5.830858       Node   130.1903      +0.5384696      +0.7693169
e   0.596733       Incl.    5.0784      +0.1376397      +0.3222264
P  14.1
>From 68 observations 2005 Nov. 30-2006 Jan. 21.

・ 星図

・ 光度変化

	A核:
        m1 = 10.0 + 5 logΔ + 12.0 log r

	B核:
        m1 = 12.5 + 5 logΔ + 12.0 log r

---------------------------------------------------------------------

軌道要素はM.P.E.C. 2005-N59に掲載されたものです。
B核の軌道要素はM.P.E.C. 2006-B28に掲載されたものです。
星図は StellaNavigator Ver.2.0 for Windows (アストロアーツ 編著 / アスキー出版局刊) で作成したものです。
光度グラフはComet for Windowsで作成したものです。

---------------------------------------------------------------------

Copyright(C) Seiichi Yoshida (comet@aerith.net). All rights reserved.